Hourly Data Report for September 21, 2020

GIMLI CLIMATE
MANITOBA
Current Station Operator: ECCC - MSC

50°38'00.000" N
97°03'00.000" W
230.10 m
5031042
71748
PGH

Download Data

Hourly Data (September 2020)
Hourly Data Report for September 21, 2020
TIME Temp Definition
°C
Dew Point Definition
°C
Rel Hum Definition
%
Wind Dir Definition
10's deg

Wind Spd Definition
km/h
Visibility Definition
km
Stn Press Definition
kPa
Hmdx Definition


Wind Chill Definition


Weather Definition


00:00 17.8 9.8 60 20 20   97.51     LegendNANA
01:00 17.3 9.7 61 19 23   97.47     LegendNANA
02:00 16.8 9.6 62 19 24   97.39     LegendNANA
03:00 18.1 10.1 59 20 32   97.35     LegendNANA
04:00 17.7 10.3 62 21 32   97.35     LegendNANA
05:00 17.8 11.0 65 22 37   97.35     LegendNANA
06:00 17.2 11.4 69 22 34   97.39     LegendNANA
07:00 17.0 11.5 70 22 31   97.45     LegendNANA
08:00 17.3 11.8 70 23 31   97.50     LegendNANA
09:00 17.2 11.7 70 23 35   97.57     LegendNANA
10:00 17.4 11.6 69 24 34   97.64     LegendNANA
11:00 17.7 11.7 68 24 35   97.73     LegendNANA
12:00 17.9 11.9 68 24 29   97.81     LegendNANA
13:00 19.2 11.9 63 25 28   97.86     LegendNANA
14:00 18.1 11.4 65 25 26   97.95     LegendNANA
15:00 17.9 11.5 66 28 22   98.05     LegendNANA
16:00 18.9 11.2 61 27 23   98.13     LegendNANA
17:00 19.7 10.8 56 27 18   98.19     LegendNANA
18:00 18.4 10.8 61 26 12   98.29     LegendNANA
19:00 17.6 10.8 64 28 15   98.42     LegendNANA
20:00 14.2 9.8 75 26 6   98.51     LegendNANA
21:00 11.8 9.4 85 23 7   98.57     LegendNANA
22:00 10.5 8.6 88 23 8   98.62     LegendNANA
23:00 10.0 8.3 89 26 5   98.66     LegendNANA

Notes on Data Quality.

Legend

  • E = Estimated
  • M = Missing
  • NA = Not Available*
  • [empty] = Indicates an unobserved value
Date modified: